This is the latest recevied weather packets stored in our database for station/object WB9TLH-11. If no packets are shown the sender has not sent any weather packets the latest 10 day(s).
| Time | Temp. | Humidity | Pressure | Rain* | Wind** | Luminosity | Snow |
|---|---|---|---|---|---|---|---|
| 1777587664 | 15° C | 40% | 1015.7 hPa | 0 mm | - | - | - |
| 1777587364 | 15° C | 39% | 1015.8 hPa | 0 mm | - | - | - |
| 1777587064 | 15.56° C | 39% | 1015.8 hPa | 0 mm | - | - | - |
| 1777586764 | 15.56° C | 42% | 1015.7 hPa | 0 mm | - | - | - |
| 1777586464 | 15.56° C | 42% | 1015.8 hPa | 0 mm | - | - | - |
| 1777586164 | 16.11° C | 35% | 1015.8 hPa | 0 mm | - | - | - |
| 1777585864 | 16.11° C | 36% | 1015.8 hPa | 0 mm | - | - | - |
| 1777585564 | 16.11° C | 35% | 1015.8 hPa | 0 mm | - | - | - |
| 1777585264 | 16.67° C | 34% | 1015.9 hPa | 0 mm | - | - | - |
| 1777584964 | 16.67° C | 34% | 1015.8 hPa | 0 mm | - | - | - |
| 1777584664 | 16.11° C | 35% | 1015.8 hPa | 0 mm | - | - | - |
| 1777584364 | 16.11° C | 35% | 1015.8 hPa | 0 mm | - | - | - |
| 1777584064 | 16.11° C | 39% | 1015.9 hPa | 0 mm | - | - | - |
| 1777583764 | 16.67° C | 38% | 1015.9 hPa | 0 mm | - | - | - |
| 1777583464 | 16.67° C | 34% | 1015.9 hPa | 0 mm | - | - | - |
| 1777583164 | 17.22° C | 33% | 1016 hPa | 0 mm | - | - | - |
| 1777582864 | 17.22° C | 34% | 1016 hPa | 0 mm | - | - | - |
| 1777582564 | 17.22° C | 37% | 1016.2 hPa | 0 mm | - | - | - |
| 1777582264 | 17.78° C | 34% | 1016.2 hPa | 0 mm | - | - | - |
| 1777581965 | 17.78° C | 32% | 1016.3 hPa | 0 mm | - | - | - |
| 1777581665 | 17.78° C | 33% | 1016.4 hPa | 0 mm | - | - | - |
| 1777581364 | 17.78° C | 33% | 1016.4 hPa | 0 mm | - | - | - |
| 1777581065 | 17.78° C | 34% | 1016.5 hPa | 0 mm | - | - | - |
| 1777580764 | 17.22° C | 35% | 1016.6 hPa | 0 mm | - | - | - |
| 1777580465 | 16.67° C | 35% | 1016.6 hPa | 0 mm | - | - | - |
* Rain latest hour (hover to see other rain measurements)
** Current wind speed in m/s (hover to see current wind gust speed)